Regional Weather Roundup
Issued by NWS

Home | Current Version | Previous Version | Text Only | Print | Product List | Glossary Off
Versions: 1 2 3 4 5 6 7 8 9 10 11 12 13 14 15 16 17 18 19 20 21 22 23 24 25 26 27 28 29 30 31 32 33 34 35 36 37 38 39 40 41 42 43 44 45 46 47 48 49 50

000
ASUS44 KFWD 200615
RWRTX
NORTH TEXAS HOURLY WEATHER ROUNDUP
NATIONAL WEATHER SERVICE FORT WORTH TX
1200 AM CST TUE FEB 20 2018

NOTE: "FAIR" INDICATES FEW OR NO CLOUDS BELOW 12,000 FEET WITH NO
SIGNIFICANT WEATHER AND/OR OBSTRUCTIONS TO VISIBILITY.

TXZ118-119-200700-
DALLAS/FORT WORTH METROPLEX

CITY           SKY/WX    TMP DP  RH WIND       PRES   REMARKS
DFW AIRPORT    CLOUDY    73  65  75 S21G30    29.81S
6HR MIN TEMP:  72; 6HR MAX TEMP:  79; 6HR PCP: TRACE;

DALLAS LOVE    CLOUDY    71  65  81 S18       29.84R
6HR MIN TEMP:  71; 6HR MAX TEMP:  76; 6HR PCP: TRACE;

FTW MEACHAM    CLOUDY    73  66  78 S17G29    29.81S
6HR MIN TEMP:  72; 6HR MAX TEMP:  78; 6HR PCP: TRACE;

DAL-EXECUTIVE  CLOUDY    71  66  84 S15G26    29.84S
6HR MIN TEMP:  70; 6HR MAX TEMP:  75; 6HR PCP:  0.02;

FTW-ALLIANCE   CLOUDY    71  65  81 S22G32    29.80F
6HR MIN TEMP:  70; 6HR MAX TEMP:  76;

FTW-NAS-JRB    CLOUDY    72  64  76 S22G33    29.81S
6HR MIN TEMP:  72; 6HR MAX TEMP:  78; 6HR PCP: TRACE;

FTW-SPINKS     CLOUDY    71  65  81 S16G25    29.84S HAZE
6HR MIN TEMP:  70; 6HR MAX TEMP:  77;

ARLINGTON      CLOUDY    70  67  90 S21G28    29.83R
6HR MIN TEMP:  69; 6HR MAX TEMP:  75; 6HR PCP: TRACE;

GRAND PRAIRIE  CLOUDY    71  64  78 S14G23    29.85R
6HR MIN TEMP:  70; 6HR MAX TEMP:  76;

ADDISON        CLOUDY    70  64  82 S17G25    29.86R
6HR MIN TEMP:  70; 6HR MAX TEMP:  75;

MESQUITE       CLOUDY    69  63  82 SE14G21   29.86S
6HR MIN TEMP:  68; 6HR MAX TEMP:  74; 6HR PCP:  0.01;

LANCASTER      CLOUDY    70  64  83 S15G21    29.86S
6HR MIN TEMP:  68; 6HR MAX TEMP:  74;

$$

TXZ091>094-102>105-117-120-121-131>134-200700-
NORTH CENTRAL TEXAS

CITY           SKY/WX    TMP DP  RH WIND       PRES   REMARKS
SHRMAN/DENISON CLOUDY    69  62  79 S23       29.82F
6HR MIN TEMP:  68; 6HR MAX TEMP:  72; 6HR PCP:  0.01;

GAINESVILLE    CLOUDY    69  63  81 S18G24    29.82R
6HR MIN TEMP:  68; 6HR MAX TEMP:  71;

BOWIE          CLOUDY    69  64  83 S14G24    29.79R
6HR MIN TEMP:  69; 6HR MAX TEMP:  74;

BRIDGEPORT     CLOUDY    70  63  77 S16       29.81R
6HR MIN TEMP:  70; 6HR MAX TEMP:  76;

DECATUR        CLOUDY    69  64  83 S17G25    29.80R
6HR MIN TEMP:  69; 6HR MAX TEMP:  74;

DENTON         CLOUDY    71  65  81 S25G32    29.81F
6HR MIN TEMP:  70; 6HR MAX TEMP:  76;

MCKINNEY       CLOUDY    69  64  84 S18G25    29.84R
6HR MIN TEMP:  69; 6HR MAX TEMP:  73; 6HR PCP:  0.01;

BONHAM         CLOUDY    67  61  80 S14G22    29.86S
6HR MIN TEMP:  67; 6HR MAX TEMP:  72;

GREENVILLE     CLOUDY    72  64  78 S14G20    29.87F
ROCKWALL       CLOUDY    69  63  81 S12G17    29.86S
6HR MIN TEMP:  69; 6HR MAX TEMP:  75;

TERRELL        CLOUDY    70  64  81 S17       29.88R
6HR MIN TEMP:  70; 6HR MAX TEMP:  75; 6HR PCP: TRACE;

WAXAHACHIE     CLOUDY    70  66  88 S16G23    29.86S
6HR MIN TEMP:  68; 6HR MAX TEMP:  73; 6HR PCP:  0.01;

CLEBURNE       CLOUDY    70  68  94 S15G22    29.85R
GRANBURY       CLOUDY    73  65  77 SE18      29.82S
6HR MIN TEMP:  72; 6HR MAX TEMP:  78;

$$

TXZ083>090-098>101-113>116-127>130-139>142-154-155-200700-
WESTERN NORTH TEXAS

CITY           SKY/WX    TMP DP  RH WIND       PRES   REMARKS
WICHITA FALLS  FAIR      68  61  78 S18       29.72R
6HR MIN TEMP:  68; 6HR MAX TEMP:  75;

WF-KICKAPOO    FAIR      69  63  82 S20G26    29.75S
6HR MIN TEMP:  69; 6HR MAX TEMP:  75;

VERNON         FAIR      69  55  60 S21G29    29.70R
6HR MIN TEMP:  69; 6HR MAX TEMP:  79;

ABILENE        FAIR      67  63  87 S20G29    29.75R
6HR MIN TEMP:  67; 6HR MAX TEMP:  74;

ABILENE-DYESS  FAIR      68  62  80 S21G28    29.75R
6HR MIN TEMP:  68; 6HR MAX TEMP:  75;

GRAHAM           N/A     71  64  78 SE13G20   29.75R
6HR MIN TEMP:  70; 6HR MAX TEMP:  76;

BRECKENRIDGE   FAIR      71  63  74 S17G35    29.76R
6HR MIN TEMP:  71; 6HR MAX TEMP:  77;

CISCO          CLOUDY    68  64  88 S23G36    29.78R
EASTLAND       CLOUDY    70  64  81 S24G30    29.79R
6HR MIN TEMP:  67; 6HR MAX TEMP:  74;

RANGER         CLOUDY    69  64  83 S20G26    29.80R
6HR MIN TEMP:  68; 6HR MAX TEMP:  74;

MINERAL WELLS  CLOUDY    71  64  78 S23G30    29.77R
6HR MIN TEMP:  70; 6HR MAX TEMP:  76;

STEPHENVILLE   CLOUDY    69  64  82 S16G24    29.84S
6HR MIN TEMP:  69; 6HR MAX TEMP:  76;

COMANCHE       CLOUDY    70  65  84 S21G26    29.82R
6HR MIN TEMP:  69; 6HR MAX TEMP:  74;

BROWNWOOD      FAIR      68  64  88 S15G22    29.82R
COLEMAN        FAIR      69  63  81 S16       29.79F
6HR MIN TEMP:  67; 6HR MAX TEMP:  76;

$$

TXZ143>147-156>162-174-175-200700-
CENTRAL TEXAS

CITY           SKY/WX    TMP DP  RH WIND       PRES   REMARKS
WACO           CLOUDY    71  65  81 S20G26    29.85F
6HR MIN TEMP:  69; 6HR MAX TEMP:  74; 6HR PCP:  0.01;

WACO-MCGREGOR  CLOUDY    71  66  84 S18       29.86S
6HR MIN TEMP:  69; 6HR MAX TEMP:  74; 6HR PCP: TRACE;

HILLSBORO      CLOUDY    70  68  91 SE20G25   29.85S
6HR MIN TEMP:  69; 6HR MAX TEMP:  74;

CORSICANA      MOCLDY    71  66  84 S15       29.89R
6HR MIN TEMP:  71; 6HR MAX TEMP:  75; 6HR PCP: TRACE;

MEXIA          MOCLDY    70  65  86 SE18G32   29.87R
6HR MIN TEMP:  69; 6HR MAX TEMP:  75; 6HR PCP:  0.01;

HEARNE         CLOUDY    72  68  88 SE13      29.92R
6HR MIN TEMP:  71; 6HR MAX TEMP:  74;

CAMERON        CLOUDY    73  66  78 S15G24    29.89R
6HR MIN TEMP:  73; 6HR MAX TEMP:  74;

TEMPLE         CLOUDY    71  67  87 S22       29.86R
6HR MIN TEMP:  69; 6HR MAX TEMP:  73; 6HR PCP: TRACE;

KILLEEN        CLOUDY    70  66  85 SE18G26   29.84R
6HR MIN TEMP:  68; 6HR MAX TEMP:  73; 6HR PCP:  0.01;

KILLEEN-SKYLRK CLOUDY    71  66  84 S18G28    29.86R
6HR MIN TEMP:  70; 6HR MAX TEMP:  72; 6HR PCP:  0.01;

FORT HOOD      CLOUDY    69  65  87 S18G25    29.82R
6HR MIN TEMP:  68; 6HR MAX TEMP:  72; 6HR PCP: TRACE;

GATESVILLE     MOCLDY    72  66  83 S10G20    29.87R
HAMILTON       CLOUDY    71  65  83 S15       29.86R
6HR MIN TEMP:  70; 6HR MAX TEMP:  75;

LAMPASAS       CLOUDY    70  65  84 S13G20    29.84S
6HR MIN TEMP:  69; 6HR MAX TEMP:  74;

$$

TXZ095>097-106>112-122>126-135>138-148>153-164>167-200700-
EAST TEXAS

CITY           SKY/WX    TMP DP  RH WIND       PRES   REMARKS
PARIS          CLOUDY    69  63  81 S14       29.89R
6HR MIN TEMP:  68; 6HR MAX TEMP:  73; 6HR PCP: TRACE;

SULPHUR SPRNGS CLOUDY    71  64  78 S15G21    29.90R
6HR MIN TEMP:  71; 6HR MAX TEMP:  75;

MOUNT PLEASANT FAIR      68  65  88 SE16G23   29.91S
6HR MIN TEMP:  68; 6HR MAX TEMP:  75;

GILMER         RAIN      67  66  97 SE8       29.94S
6HR MIN TEMP:  67; 6HR MAX TEMP:  75; 6HR PCP:  0.02;

MINEOLA        CLOUDY    72  66  83 S12G24    29.89R
TYLER          MOCLDY    71  67  87 S15G25    29.91S
6HR MIN TEMP:  71; 6HR MAX TEMP:  76; 6HR PCP: TRACE;

LONGVIEW       CLOUDY    70  69  97 S14       29.94S
6HR MIN TEMP:  70; 6HR MAX TEMP:  75; 6HR PCP: TRACE;

MARSHALL       CLOUDY    70  64  81 S17G24    29.98S
6HR MIN TEMP:  70; 6HR MAX TEMP:  75;

ATHENS         CLOUDY    68  63  83 S17       29.90R
PALESTINE      CLOUDY    72  67  84 SE13G20   29.94R
JACKSONVILLE   CLOUDY    70  67  92 S14G21    29.96S
CENTER         CLOUDY    70  65  84 SE9       30.01R
6HR MIN TEMP:  70; 6HR MAX TEMP:  74;

LUFKIN         CLOUDY    70  68  93 S12       29.98S
6HR MIN TEMP:  69; 6HR MAX TEMP:  74; 6HR PCP:  0.01;

$$

SUPPLEMENTAL OBSERVATIONS (NWS FORT WORTH AREA)

CITY           SKY/WX    TMP DP  RH WIND       PRE


USA.gov is the U.S. government's official web portal to all federal, state and local government web resources and services.